St. Joseph, KS

5:46 AM CDT on October 19, 2019 (GMT -0500)
Rosecrans Memorial

Weather History for KSTJ - September, 2019

Change the Weather History Date:

Friday, September 20, 2019

  Actual Average Record
Temperature  
Mean Temperature 77 °F 65 °F  
Max Temperature 87 °F 78 °F 96 °F (2018)
Min Temperature 67 °F 52 °F 32 °F (1991)
Degree Days  
Heating Degree Days 0 3  
Month to date heating degree days 0 29  
Since 1 July heating degree days 0 34  
Cooling Degree Days 12 3  
Month to date cooling degree days 237 97  
Year to date cooling degree days 1381 1174  
Growing Degree Days 28 (Base 50)    
Moisture  
Dew Point 67 °F    
Average Humidity 70    
Maximum Humidity 93    
Minimum Humidity 46    
Precipitation  
Precipitation 0.01 in 0.11 in 2.20 in (1931)
Month to date precipitation 1.48 2.50  
Year to date precipitation 30.75 28.80  
Sea Level Pressure  
Sea Level Pressure 29.96 in    
Wind  
Wind Speed 10 mph (SSE)    
Max Wind Speed 25 mph    
Max Gust Speed 33 mph    
Visibility 9 miles    
Events Rain    
T = Trace of Precipitation, MM = Missing Value Source: NWS Daily Summary

Daily Weather History Graph

Daily Weather History Graph

Search for Another Location

Airport or City:

Astronomy

Sep. 20, 2019 Rise Set
Actual Time 7:05 AM CDT 7:20 PM CDT
Civil Twilight 6:38 AM CDT 7:47 PM CDT
Nautical Twilight 6:06 AM CDT 8:18 PM CDT
Astronomical Twilight 5:34 AM CDT 8:51 PM CDT
Moon 11:11 PM CDT (9/20) 1:10 PM CDT (9/20)
Length of Visible Light 13h 09m
Length of Day
12h 15m
Waning Gibbous, 65% of the Moon is Illuminated
Sep 20
Waning Gibbous
Sep 21
Last Quarter
Sep 28
New
Oct 5
First Quarter
Oct 13
Full

Hourly Weather History & Observations

Time (CDT) Temp. Heat Index Dew Point Humidity Pressure Visibility Wind Dir Wind Speed Gust Speed Precip Events Conditions
12:53 AM 71.1 °F - 69.1 °F 93% 29.98 in 7.0 mi South 3.5 mph - N/A   Clear
1:53 AM 73.0 °F - 66.9 °F 81% 29.98 in 9.0 mi South 3.5 mph - N/A   Clear
2:53 AM 73.0 °F - 66.0 °F 79% 29.98 in 9.0 mi Calm Calm - N/A   Clear
3:53 AM 71.1 °F - 66.0 °F 84% 29.98 in 9.0 mi SSE 4.6 mph - N/A   Clear
4:53 AM 68.0 °F - 64.9 °F 90% 29.98 in 7.0 mi Calm Calm - N/A   Clear
5:53 AM 70.0 °F - 66.0 °F 87% 29.97 in 8.0 mi SE 4.6 mph - N/A   Clear
6:53 AM 70.0 °F - 66.0 °F 87% 29.97 in 8.0 mi SSE 4.6 mph - N/A   Clear
7:53 AM 72.0 °F - 68.0 °F 87% 29.99 in 5.0 mi Calm Calm - N/A   Clear
8:53 AM 73.9 °F - 68.0 °F 82% 30.02 in 8.0 mi SSE 5.8 mph - N/A   Clear
9:53 AM 79.0 °F - 68.0 °F 69% 30.01 in 10.0 mi SSE 10.4 mph - N/A   Clear
10:53 AM 82.9 °F 85.8 °F 68.0 °F 60% 30.00 in 10.0 mi SSE 9.2 mph - N/A   Clear
11:53 AM 84.0 °F 86.5 °F 66.9 °F 56% 30.00 in 10.0 mi SSE 15.0 mph - N/A   Clear
12:53 PM 84.0 °F 86.3 °F 66.0 °F 55% 29.98 in 10.0 mi SSE 15.0 mph 21.9 mph N/A   Clear
1:53 PM 87.1 °F 88.9 °F 64.9 °F 48% 29.95 in 10.0 mi South 19.6 mph 33.4 mph N/A   Clear
2:53 PM 84.9 °F 87.6 °F 66.9 °F 55% 29.94 in 10.0 mi South 13.8 mph - N/A   Mostly Cloudy
3:53 PM 86.0 °F 88.8 °F 66.9 °F 53% 29.93 in 10.0 mi South 19.6 mph 27.6 mph N/A   Partly Cloudy
4:53 PM 82.0 °F 84.5 °F 66.9 °F 60% 29.92 in 10.0 mi South 13.8 mph 24.2 mph N/A   Clear
5:53 PM 78.1 °F - 66.9 °F 68% 29.93 in 10.0 mi South 12.7 mph - 0.00 in Rain Light Rain
6:53 PM 77.0 °F - 66.0 °F 69% 29.92 in 10.0 mi South 15.0 mph 28.8 mph 0.00 in   Scattered Clouds
7:53 PM 75.0 °F - 66.0 °F 73% 29.93 in 10.0 mi South 12.7 mph 24.2 mph N/A   Partly Cloudy
8:32 PM 75.0 °F - 66.9 °F 76% 29.95 in 10.0 mi South 15.0 mph - N/A   Overcast
8:53 PM 75.9 °F - 66.9 °F 74% 29.93 in 10.0 mi SSE 12.7 mph - N/A   Overcast
9:14 PM 75.0 °F - 66.9 °F 76% 29.95 in 10.0 mi South 13.8 mph - N/A   Overcast
9:40 PM 73.9 °F - 66.9 °F 79% 29.96 in 10.0 mi SSE 12.7 mph - N/A   Overcast
9:53 PM 75.0 °F - 66.9 °F 76% 29.94 in 10.0 mi SSE 13.8 mph - N/A   Overcast
10:07 PM 75.0 °F - 66.9 °F 76% 29.96 in 10.0 mi SSE 15.0 mph 23.0 mph N/A   Overcast
10:53 PM 73.9 °F - 66.9 °F 79% 29.94 in 10.0 mi SSE 13.8 mph - N/A   Overcast
11:53 PM 72.0 °F - 69.1 °F 91% 29.94 in 5.0 mi SSE 12.7 mph - 0.00 in   Overcast